Regional Weather Roundup
Issued by NWS

Home | Current Version | Previous Version | Graphics & Text | Print | Product List | Glossary On
Versions: 1 2 3 4 5 6 7 8 9 10 11 12 13 14 15 16 17 18 19 20 21 22 23 24 25 26 27 28 29 30 31 32 33 34 35 36 37 38 39 40 41 42 43 44 45 46 47 48 49 50
000
ASUS43 KLOT 292121
RWRIL

ILLINOIS REGIONAL WEATHER ROUNDUP
NATIONAL WEATHER SERVICE CHICAGO/ROMEOVILLE IL
400 PM CDT SUN MAR 29 2015

NOTE: "FAIR" INDICATES FEW OR NO CLOUDS BELOW 12,000 FEET WITH NO
SIGNIFICANT WEATHER AND/OR OBSTRUCTIONS TO VISIBILITY.

* THESE STATIONS ARE NOT UNDER NWS QUALITY CONTROL. THEY ALSO MAY NOT
  REPORT WEATHER SUCH AS PRECIPITATION OR FOG.

ILZ001-002-007-009-015-016-024-292200-
NORTHWEST ILLINOIS

CITY           SKY/WX    TMP DP  RH WIND       PRES   REMARKS
MOLINE         CLOUDY    55  40  56 SW14      29.79F
STERLING*      CLOUDY    50  39  66 W9G17     29.77F
SAVANNA*       CLOUDY    51  40  67 SW12      29.75F
$$

ILZ003-004-008-010-011-017-018-292200-
NORTH CENTRAL ILLINOIS

CITY           SKY/WX    TMP DP  RH WIND       PRES   REMARKS
ROCKFORD       CLOUDY    44  36  73 SW20G28   29.77F
FREEPORT*      CLOUDY    43  38  80 SW18G24   29.75F
ROCHELLE*      CLOUDY    45  38  77 SW25      29.80F
DE KALB*       CLOUDY    42  35  75 SW21G31   29.80F
PERU*          MOSUNNY   51  35  54 SW25      29.84F
$$

ILZ005-006-012>014-019>023-292200-
NORTHEAST ILLINOIS

CITY           SKY/WX    TMP DP  RH WIND       PRES   REMARKS
CHICAGO-OHARE  PTSUNNY   41  30  65 SW20G29   29.80F
CHICAGO-MIDWAY PTSUNNY   43  31  62 SW25G31   29.82F
AURORA         PTSUNNY   46  33  60 SW21G31   29.82F
LANSING*       CLOUDY    40  30  68 SW18G25   29.85F
JOLIET*        PTSUNNY   47  35  63 SW16G22   29.84F
WAUKEGAN       CLOUDY    40  31  70 SW26G35   29.76F
DUPAGE AIRPORT CLOUDY    43  33  68 SW20G32   29.82F
KANKAKEE*      CLOUDY    44  35  72 S25       29.88F
WHEELING       CLOUDY    41  29  62 SW21G31   29.81F
MORRIS*        MOSUNNY   46  34  61 SW24G33   29.84F
ROMEOVILLE*    PTSUNNY   44  33  64 SW24G32   29.82F
NORTHERLY ISL    N/A     40  29  65 S18         N/A
$$

LMZ740>746-292200-
SOUTHERN LAKE MICHIGAN

STATION/POSITION SKY/WX   TEMP    WIND        PRES    VSBY  WAVE
                          AIR SEA DIR/SP/G                  HT/PER
                          (F)     (DEG/KT/KT) (MB)    (MI)  (FT/S)
HARRISON CRIB              40     210/ 27/ 35   N/A
BURNHAM HARBOR             41     170/ 11/ 22   N/A
CALUMET HARBOR             37     190/ 16/ 25 1009.6F
BURNS HARBOR               37     190/ 17/ 27 1011.5
MICHIGAN CITY              37     170/ 20/ 26   N/A
$$

ILZ025>027-034>036-040-047-049-050-058-095>099-292200-
WEST-CENTRAL ILLINOIS

CITY           SKY/WX    TMP DP  RH WIND       PRES   REMARKS
QUINCY         PTSUNNY   57  38  48 W16G22    29.92R
GALESBURG*     PTSUNNY   55  41  60 SW15G26   29.84F
MACOMB*        CLOUDY    56  41  57 W18G26    29.90R
JACKSONVILLE*  PTSUNNY   58  37  46 SW17G23   29.91F
PITTSFIELD*    PTSUNNY   56  39  52 SW15G24   29.93S
$$

ILZ028>032-037-038-041>044-048-051>054-059>061-292200-
CENTRAL ILLINOIS

CITY           SKY/WX    TMP DP  RH WIND       PRES   REMARKS
PONTIAC        PTSUNNY   49  34  58 SW25G35   29.87F
BLOOMINGTON    PTSUNNY   49  34  56 SW25G31   29.89F
DECATUR        CLOUDY    47  37  68 SW13      29.94S
PEORIA         PTSUNNY   56  35  45 SW16      29.87F
LACON*         PTSUNNY   49  32  52 SW15G22   29.84F
LINCOLN*       CLOUDY    54  37  52 SW9G16    29.90F
SPRINGFIELD    CLOUDY    56  36  47 SW15G25   29.91F
TAYLORVILLE    CLOUDY    46  37  71 SW12      29.94F
$$

ILZ033-039-045-046-055>057-062-063-292200-
EAST-CENTRAL ILLINOIS

CITY           SKY/WX    TMP DP  RH WIND       PRES   REMARKS
CHAMPAIGN      LGT RAIN  45  37  73 S12       29.93R
DANVILLE*      RAIN      41  34  77 S17G23    29.88F
RANTOUL*       CLOUDY    46  38  73 SW13      29.91F
MATTOON        LGT RAIN  49  33  54 S13       29.94S
PARIS*         LGT RAIN  47  34  61 S16       29.96F
$$

ILZ079-100>102-292200-
SOUTHWEST ILLINOIS

CITY           SKY/WX    TMP DP  RH WIND       PRES   REMARKS
ALTON          DRIZZLE   54  34  47 S12       29.94
BELLEVILLE     CLOUDY    58  40  49 SW8       29.94S
CAHOKIA*       LGT RAIN  60  38  43 W5        29.96R
SPARTA*        CLOUDY    56  41  57 SW17G28   29.99R
$$

ILZ064>066-069>071-074>076-080>082-084>086-088>090-092>094-292200-
SOUTH-CENTRAL ILLINOIS

CITY           SKY/WX    TMP DP  RH WIND       PRES   REMARKS
CARBONDALE     CLOUDY    56  39  53 SW15G29   29.98S
CAIRO*         CLOUDY    55  41  58 S13       30.02F
EFFINGHAM*     LGT RAIN  54  29  39 S14G25    29.97F
MARION         PTSUNNY   57  37  47 S18G25    29.99F
MT. VERNON     PTSUNNY   55  37  50 S17G23    29.99R
CENTRALIA*     CLOUDY    55  38  53 S18       29.96F
SALEM*         DRIZZLE   57  39  50 SW16G23   29.96F
METROPOLIS*    CLOUDY    58  38  48 S12G20    30.00F
$$

ILZ067-068-072-073-078-083-087-091-292200-
SOUTHEAST ILLINOIS

CITY           SKY/WX    TMP DP  RH WIND       PRES   REMARKS
LAWRENCEVILLE  PTSUNNY   55  29  36 S22G31    29.97F
FLORA*         PTSUNNY   56  35  46 SW20G26   29.97R
FAIRFIELD*     PTSUNNY   58  37  45 S16G28    29.95F
HARRISBURG*    CLOUDY    59  36  42 S20       29.99F
ROBINSON*      CLOUDY    52  29  42 SW14G21   29.99R
CARMI*         MOSUNNY   59  32  36 S25G32    29.97F
$$

ABBREVIATIONS USED IN REMARKS
   TC - TEMPERATURE IN CELSIUS
  WCI - WIND CHILL INDEX
   HX - HEAT INDEX
  VSB - VISIBILITY
$$



USA.gov is the U.S. government's official web portal to all federal, state and local government web resources and services.